Location: Launay
(47.2429°N, 1.5727°E)
Time: 19:40:31
(UTC+00:00)

SL-16 R/B - Pass Details

Date: 19 May 2025
Orbit: 841 x 844 km, 71.0° (Epoch: 22 June)

Event Time Altitude Azimuth Distance (km) Brightness Sun altitude
Rises 22:40:58 0° 334° (NNW) 3,413 6.9 -21.0°
Reaches altitude 10° 22:43:28 10° 338° (NNW) 2,475 5.8 -21.1°
Maximum altitude 22:49:05 61° 59° (ENE) 957 2.5 -21.4°
Enters shadow 22:51:19 36° 124° (SE) 1,317 2.8 -21.5°
